Charlevoix, MI

3:01 PM EDT on April 27, 2017 (GMT -0400)
Charlevoix Municipal

Weather History for KCVX - June, 2011

Change the Weather History Date:

Saturday, June 25, 2011

  Actual Average Record
Temperature  
Mean Temperature 60 °F -  
Max Temperature 71 °F 78 °F 93 °F (2003)
Min Temperature 50 °F 62 °F 39 °F (2004)
Degree Days  
Heating Degree Days 4    
Growing Degree Days 10 (Base 50)    
Moisture  
Dew Point 50 °F    
Average Humidity 73    
Maximum Humidity 100    
Minimum Humidity 46    
Precipitation  
Precipitation 0.00 in - - ()
Sea Level Pressure  
Sea Level Pressure 29.88 in    
Wind  
Wind Speed 8 mph (West)    
Max Wind Speed 14 mph    
Max Gust Speed 20 mph    
Visibility 10 miles    
Events      
Averages and records for this station are not official NWS values.
T = Trace of Precipitation, MM = Missing Value Source: NWS Daily Summary

Daily Weather History Graph

Daily Weather History Graph

Search for Another Location

Airport or City:

Trip Planner

Search our weather history database for the weather conditions in past years. The results will help you decide how hot, cold, wet, or windy it might be!

Date:

Astronomy

Jun. 25, 2011 Rise Set
Actual Time 5:54 AM EDT 9:33 PM EDT
Civil Twilight 5:16 AM EDT 10:10 PM EDT
Nautical Twilight 4:26 AM EDT 11:01 PM EDT
Astronomical Twilight 3:18 AM EDT 12:08 AM EDT
Moon 1:51 AM EDT (6/25) 4:14 PM EDT (6/25)
Length of Visible Light 16h 54m
Length of Day
15h 38m
Waning Crescent, 30% of the Moon is Illuminated
Jun 25
Waning Crescent
Jul 1
New
Jul 8
First Quarter
Jul 15
Full
Jul 23
Last Quarter

Hourly Weather History & Observations

Time (EDT) Temp. Dew Point Humidity Pressure Visibility Wind Dir Wind Speed Gust Speed Precip Events Conditions
12:14 AM 51.8 °F 50.0 °F 94% 29.78 in 10.0 mi West 11.5 mph - N/A   Overcast
12:34 AM 51.8 °F 50.0 °F 94% 29.79 in 10.0 mi West 9.2 mph - N/A   Overcast
12:55 AM 51.8 °F 50.0 °F 94% 29.78 in 10.0 mi West 8.1 mph - N/A   Overcast
1:14 AM 51.8 °F 50.0 °F 94% 29.78 in 10.0 mi West 8.1 mph - N/A   Overcast
1:34 AM 51.8 °F 50.0 °F 94% 29.78 in 10.0 mi WNW 11.5 mph 19.6 mph N/A   Overcast
1:55 AM 51.8 °F 50.0 °F 94% 29.79 in 10.0 mi WNW 13.8 mph 18.4 mph N/A   Mostly Cloudy
2:14 AM 51.8 °F 50.0 °F 94% 29.78 in 10.0 mi WNW 10.4 mph 16.1 mph N/A   Scattered Clouds
2:34 AM 50.0 °F 50.0 °F 100% 29.78 in 10.0 mi West 8.1 mph - N/A   Clear
2:55 AM 50.0 °F 48.2 °F 94% 29.79 in 10.0 mi West 6.9 mph - N/A   Clear
3:14 AM 50.0 °F 48.2 °F 94% 29.79 in 10.0 mi West 8.1 mph - N/A   Clear
3:35 AM 50.0 °F 48.2 °F 94% 29.80 in 10.0 mi West 12.7 mph - N/A   Clear
3:55 AM 50.0 °F 50.0 °F 100% 29.81 in 10.0 mi West 10.4 mph - N/A   Clear
4:14 AM 51.8 °F 50.0 °F 94% 29.81 in 10.0 mi West 10.4 mph - N/A   Mostly Cloudy
4:35 AM 53.6 °F 50.0 °F 88% 29.82 in 10.0 mi WNW 11.5 mph 17.3 mph N/A   Overcast
4:54 AM 53.6 °F 50.0 °F 88% 29.83 in 10.0 mi West 11.5 mph 16.1 mph N/A   Overcast
5:14 AM 51.8 °F 50.0 °F 94% 29.85 in 10.0 mi West 9.2 mph - N/A   Overcast
5:35 AM 51.8 °F 48.2 °F 88% 29.86 in 10.0 mi West 6.9 mph - N/A   Overcast
5:54 AM 51.8 °F 48.2 °F 88% 29.85 in 10.0 mi West 5.8 mph - N/A   Overcast
6:14 AM 51.8 °F 48.2 °F 88% 29.86 in 10.0 mi WNW 6.9 mph - N/A   Mostly Cloudy
6:35 AM 51.8 °F 48.2 °F 88% 29.86 in 10.0 mi WNW 4.6 mph - N/A   Overcast
6:54 AM 51.8 °F 48.2 °F 88% 29.87 in 10.0 mi Calm Calm - N/A   Scattered Clouds
7:14 AM 53.6 °F 50.0 °F 88% 29.87 in 10.0 mi Calm Calm - N/A   Scattered Clouds
7:35 AM 55.4 °F 50.0 °F 82% 29.88 in 10.0 mi WNW 5.8 mph - N/A   Mostly Cloudy
7:54 AM 55.4 °F 50.0 °F 82% 29.89 in 10.0 mi West 5.8 mph - N/A   Scattered Clouds
8:15 AM 57.2 °F 50.0 °F 77% 29.88 in 10.0 mi WNW 6.9 mph - N/A   Clear
8:35 AM 57.2 °F 50.0 °F 77% 29.88 in 10.0 mi WSW 5.8 mph - N/A   Clear
8:54 AM 59.0 °F 50.0 °F 72% 29.88 in 10.0 mi West 5.8 mph - N/A   Clear
9:15 AM 59.0 °F 51.8 °F 77% 29.89 in 10.0 mi NNW 6.9 mph - N/A   Clear
9:35 AM 59.0 °F 50.0 °F 72% 29.89 in 10.0 mi NW 3.5 mph - N/A   Clear
9:54 AM 59.0 °F 50.0 °F 72% 29.88 in 10.0 mi Calm Calm - N/A   Clear
10:34 AM 62.6 °F 51.8 °F 68% 29.88 in 10.0 mi Calm Calm - N/A   Clear
11:15 AM 64.4 °F 48.2 °F 56% 29.88 in 10.0 mi NW 8.1 mph - N/A   Clear
11:34 AM 64.4 °F 48.2 °F 56% 29.87 in 10.0 mi NNW 5.8 mph - N/A   Clear
11:55 AM 64.4 °F 48.2 °F 56% 29.88 in 10.0 mi NNW 5.8 mph - N/A   Clear
12:14 PM 66.2 °F 50.0 °F 56% 29.89 in 10.0 mi WNW 5.8 mph - N/A   Clear
12:34 PM 66.2 °F 51.8 °F 60% 29.92 in 10.0 mi West 10.4 mph - N/A   Clear
12:55 PM 64.4 °F 51.8 °F 64% 29.93 in 10.0 mi West 13.8 mph - N/A   Clear
1:15 PM 66.2 °F 51.8 °F 60% 29.92 in 10.0 mi West 9.2 mph - N/A   Clear
1:34 PM 66.2 °F 51.8 °F 60% 29.93 in 10.0 mi West 11.5 mph - N/A   Clear
1:55 PM 66.2 °F 51.8 °F 60% 29.94 in 10.0 mi West 10.4 mph - N/A   Clear
2:34 PM 68.0 °F 51.8 °F 56% 29.94 in 10.0 mi West 11.5 mph - N/A   Clear
2:54 PM 68.0 °F 51.8 °F 56% 29.94 in 10.0 mi West 9.2 mph - N/A   Clear
3:14 PM 69.8 °F 51.8 °F 53% 29.93 in 10.0 mi West 9.2 mph - N/A   Clear
3:35 PM 69.8 °F 51.8 °F 53% 29.93 in 10.0 mi West 8.1 mph - N/A   Clear
3:54 PM 71.6 °F 51.8 °F 50% 29.93 in 10.0 mi West 8.1 mph - N/A   Clear
4:14 PM 71.6 °F 51.8 °F 50% 29.93 in 10.0 mi West 8.1 mph - N/A   Clear
4:35 PM 71.6 °F 51.8 °F 50% 29.94 in 10.0 mi West 9.2 mph - N/A   Clear
4:54 PM 69.8 °F 51.8 °F 53% 29.94 in 10.0 mi West 10.4 mph - N/A   Clear
5:14 PM 69.8 °F 51.8 °F 53% 29.94 in 10.0 mi West 8.1 mph - N/A   Clear
5:35 PM 69.8 °F 51.8 °F 53% 29.93 in 10.0 mi WSW 8.1 mph - N/A   Clear
5:54 PM 71.6 °F 51.8 °F 50% 29.94 in 10.0 mi West 10.4 mph - N/A   Clear
6:35 PM 69.8 °F 50.0 °F 49% 29.94 in 10.0 mi SW 8.1 mph - N/A   Clear
6:54 PM 69.8 °F 51.8 °F 53% 29.94 in 10.0 mi WSW 3.5 mph - N/A   Clear
7:15 PM 69.8 °F 50.0 °F 49% 29.94 in 10.0 mi SW 5.8 mph - N/A   Clear
7:35 PM 69.8 °F 51.8 °F 53% 29.94 in 10.0 mi WSW 4.6 mph - N/A   Clear
7:54 PM 69.8 °F 48.2 °F 46% 29.94 in 10.0 mi Calm Calm - N/A   Clear
8:34 PM 68.0 °F 55.4 °F 64% 29.94 in 10.0 mi Calm Calm - N/A   Clear
8:54 PM 64.4 °F 53.6 °F 68% 29.95 in 10.0 mi Calm Calm - N/A   Clear
9:15 PM 57.2 °F 51.8 °F 82% 29.96 in 10.0 mi NW 3.5 mph - N/A   Clear
9:34 PM 55.4 °F 51.8 °F 88% 29.97 in 10.0 mi Calm Calm - N/A   Clear
9:54 PM 57.2 °F 51.8 °F 82% 29.97 in 10.0 mi Calm Calm - N/A   Clear
10:14 PM 59.0 °F 51.8 °F 77% 29.98 in 10.0 mi WSW 5.8 mph - N/A   Clear
10:34 PM 59.0 °F 51.8 °F 77% 29.98 in 10.0 mi West 4.6 mph - N/A   Clear
10:55 PM 59.0 °F 51.8 °F 77% 29.98 in 10.0 mi West 3.5 mph - N/A   Clear
11:14 PM 57.2 °F 51.8 °F 82% 29.98 in 10.0 mi Calm Calm - N/A   Clear
11:55 PM 55.4 °F 51.8 °F 88% 29.99 in 10.0 mi Calm Calm - N/A   Clear